EIN58P LEMG-EIDW

Flight info

Callsign EIN58P
Flight time N/A
Altitude 40000
Route BLN DCT MORAL DCT BEXID DCT VTB DCT NVS DCT AVILA DCT ZMR DCT VETAN DCT OMESI DCT VES DCT KORUL DCT TULTA/M079F400 DCT TUVEN/N0454F390 DCT WTD DCT BUNED BUNED4L
Aircraft A333/H-SDE3GHIJ2J3J5M1RVWXY/LB2D1

Departure

Time N/A
Airport Málaga-Costa del Sol Airport (LEMG)

Arrival

Time 2026-05-06 18:42
Airport Dublin Airport (EIDW)
Time Latitude Longitude Altitude Speed Heading
2026-05-06 17:49 48.54640 -7.99055 39997 ft 463 kts 347°
2026-05-06 17:49 48.57852 -8.00020 39994 ft 463 kts 350°
2026-05-06 17:49 48.64383 -8.00680 39997 ft 465 kts 355°
2026-05-06 17:50 48.70949 -8.01307 39996 ft 464 kts 355°
2026-05-06 17:50 48.77485 -8.01951 39988 ft 464 kts 355°
2026-05-06 17:51 48.84045 -8.02599 39992 ft 464 kts 355°
2026-05-06 17:51 48.90556 -8.03246 40025 ft 465 kts 355°
2026-05-06 17:52 48.97054 -8.03894 39991 ft 464 kts 355°
2026-05-06 17:52 49.03581 -8.04546 39996 ft 464 kts 355°
2026-05-06 17:53 49.06734 -8.04861 39985 ft 464 kts 355°
2026-05-06 17:53 49.13302 -8.05519 39993 ft 464 kts 355°
2026-05-06 17:54 49.19864 -8.06178 39990 ft 463 kts 355°
2026-05-06 17:54 49.26392 -8.06836 40001 ft 463 kts 355°
2026-05-06 17:55 49.32929 -8.07497 40002 ft 463 kts 355°
2026-05-06 17:55 49.39470 -8.08160 40006 ft 464 kts 355°
2026-05-06 17:56 49.46056 -8.08829 40004 ft 464 kts 355°
2026-05-06 17:56 49.52570 -8.09492 40005 ft 462 kts 355°
2026-05-06 17:57 49.59039 -8.10152 40002 ft 462 kts 355°
2026-05-06 17:57 49.65551 -8.10819 39991 ft 462 kts 355°
2026-05-06 17:58 49.72063 -8.11488 39988 ft 461 kts 355°
2026-05-06 17:58 49.78550 -8.12156 39987 ft 461 kts 355°
2026-05-06 17:59 49.85034 -8.12824 39989 ft 460 kts 355°
2026-05-06 17:59 49.91490 -8.13493 39985 ft 461 kts 355°
2026-05-06 18:00 49.98024 -8.14171 39984 ft 460 kts 355°
2026-05-06 18:00 50.04527 -8.14848 39988 ft 460 kts 355°
2026-05-06 18:01 50.10995 -8.15523 39991 ft 460 kts 355°
2026-05-06 18:01 50.17435 -8.16196 39999 ft 459 kts 355°
2026-05-06 18:02 50.23879 -8.16872 40005 ft 460 kts 355°
2026-05-06 18:02 50.30353 -8.17553 40006 ft 459 kts 355°
2026-05-06 18:03 50.36779 -8.18231 40002 ft 460 kts 355°
2026-05-06 18:03 50.43275 -8.18918 40000 ft 461 kts 355°
2026-05-06 18:04 50.49757 -8.19606 39990 ft 460 kts 355°
2026-05-06 18:04 50.56255 -8.20297 39994 ft 460 kts 355°
2026-05-06 18:05 50.62720 -8.20986 39995 ft 459 kts 355°
2026-05-06 18:05 50.69179 -8.21677 39995 ft 459 kts 355°
2026-05-06 18:06 50.75672 -8.22373 39989 ft 459 kts 355°
2026-05-06 18:06 50.82117 -8.23066 39991 ft 459 kts 355°
2026-05-06 18:07 50.88556 -8.23760 39989 ft 458 kts 355°
2026-05-06 18:07 50.94985 -8.24456 39986 ft 458 kts 355°
2026-05-06 18:08 51.01404 -8.23753 39987 ft 460 kts 18°
2026-05-06 18:08 51.04280 -8.21435 40008 ft 463 kts 33°
2026-05-06 18:08 51.06980 -8.18502 40002 ft 465 kts 31°
2026-05-06 18:09 51.12574 -8.13022 39989 ft 463 kts 30°
2026-05-06 18:09 51.18054 -8.07754 39990 ft 462 kts 30°
2026-05-06 18:10 51.23617 -8.02402 39992 ft 463 kts 30°
2026-05-06 18:10 51.29237 -7.96984 39991 ft 463 kts 30°
2026-05-06 18:11 51.34783 -7.91620 39985 ft 463 kts 30°
2026-05-06 18:11 51.40380 -7.86193 39987 ft 464 kts 30°
2026-05-06 18:12 51.45910 -7.80814 39986 ft 463 kts 30°
2026-05-06 18:12 51.51491 -7.75370 39985 ft 462 kts 30°
2026-05-06 18:13 51.57055 -7.69928 39990 ft 462 kts 30°
2026-05-06 18:13 51.62627 -7.64460 39623 ft 460 kts 30°
2026-05-06 18:14 51.65405 -7.61728 39230 ft 456 kts 30°
2026-05-06 18:14 51.68151 -7.59024 38467 ft 460 kts 30°
2026-05-06 18:14 51.70891 -7.56324 37902 ft 457 kts 30°
2026-05-06 18:14 51.73632 -7.53618 37239 ft 457 kts 30°
2026-05-06 18:15 51.76253 -7.51026 36601 ft 456 kts 30°
2026-05-06 18:15 51.79123 -7.48183 36034 ft 456 kts 30°
2026-05-06 18:15 51.81879 -7.45452 35473 ft 457 kts 30°
2026-05-06 18:15 51.84565 -7.42782 34803 ft 457 kts 31°
2026-05-06 18:16 51.87317 -7.40043 34019 ft 455 kts 30°
2026-05-06 18:16 51.90032 -7.37339 33290 ft 453 kts 30°
2026-05-06 18:16 51.92735 -7.34642 32466 ft 454 kts 31°
2026-05-06 18:16 51.95446 -7.31933 31647 ft 454 kts 31°
2026-05-06 18:17 51.98161 -7.29218 30889 ft 454 kts 31°
2026-05-06 18:17 52.00852 -7.26521 30254 ft 450 kts 31°
2026-05-06 18:17 52.03540 -7.23824 29647 ft 446 kts 31°
2026-05-06 18:17 52.06197 -7.21156 29060 ft 442 kts 31°
2026-05-06 18:18 52.08827 -7.18509 28436 ft 440 kts 31°
2026-05-06 18:18 52.11454 -7.15862 27809 ft 437 kts 31°
2026-05-06 18:18 52.14055 -7.13237 27186 ft 433 kts 31°
2026-05-06 18:18 52.16618 -7.10647 26644 ft 428 kts 31°
2026-05-06 18:19 52.19134 -7.08098 26133 ft 423 kts 31°
2026-05-06 18:19 52.21659 -7.05488 25654 ft 417 kts 31°
2026-05-06 18:19 52.24082 -7.02981 25184 ft 411 kts 31°
2026-05-06 18:19 52.26507 -7.00466 24695 ft 406 kts 31°
2026-05-06 18:20 52.28914 -6.97970 24165 ft 402 kts 31°
2026-05-06 18:20 52.31281 -6.95511 23634 ft 398 kts 31°
2026-05-06 18:20 52.33636 -6.93061 23083 ft 395 kts 31°
2026-05-06 18:20 52.35978 -6.90620 22537 ft 392 kts 31°
2026-05-06 18:21 52.38305 -6.88195 21981 ft 389 kts 31°
2026-05-06 18:21 52.40603 -6.85794 21451 ft 385 kts 31°
2026-05-06 18:21 52.42904 -6.83389 20921 ft 381 kts 31°
2026-05-06 18:21 52.45148 -6.81039 20415 ft 377 kts 31°
2026-05-06 18:22 52.47381 -6.78697 19920 ft 373 kts 31°
2026-05-06 18:22 52.49592 -6.76377 19431 ft 369 kts 31°
2026-05-06 18:22 52.51780 -6.74077 18948 ft 365 kts 31°
2026-05-06 18:22 52.53968 -6.71777 18465 ft 362 kts 31°
2026-05-06 18:23 52.56121 -6.69508 17996 ft 359 kts 31°
2026-05-06 18:23 52.58233 -6.67282 17530 ft 356 kts 31°
2026-05-06 18:23 52.60338 -6.65061 17068 ft 353 kts 31°
2026-05-06 18:23 52.62593 -6.63418 16584 ft 346 kts 11°
2026-05-06 18:24 52.65014 -6.63192 16115 ft 341 kts 355°
2026-05-06 18:24 52.67425 -6.63411 15651 ft 340 kts 355°
2026-05-06 18:24 52.69812 -6.63612 15181 ft 338 kts 355°
2026-05-06 18:24 52.72174 -6.63806 14710 ft 337 kts 355°
2026-05-06 18:25 52.74538 -6.64000 14230 ft 336 kts 355°
2026-05-06 18:25 52.76915 -6.64194 13735 ft 335 kts 355°
2026-05-06 18:25 52.79278 -6.64387 13237 ft 335 kts 355°
2026-05-06 18:25 52.81608 -6.64579 12752 ft 334 kts 355°
2026-05-06 18:26 52.83952 -6.64770 12269 ft 333 kts 355°
2026-05-06 18:26 52.86299 -6.64961 11799 ft 331 kts 355°
2026-05-06 18:26 52.88621 -6.65151 11347 ft 329 kts 355°
2026-05-06 18:26 52.90952 -6.65343 10912 ft 327 kts 355°
2026-05-06 18:27 52.93267 -6.65535 10500 ft 324 kts 355°
2026-05-06 18:27 52.95528 -6.65720 10307 ft 315 kts 355°
2026-05-06 18:27 52.97730 -6.65897 10240 ft 308 kts 356°
2026-05-06 18:27 52.99822 -6.65347 10127 ft 300 kts 20°
2026-05-06 18:28 53.01562 -6.63436 10019 ft 292 kts 45°
2026-05-06 18:28 53.02871 -6.60862 9932 ft 284 kts 49°
2026-05-06 18:28 53.04141 -6.58324 9905 ft 276 kts 49°
2026-05-06 18:28 53.05368 -6.55854 9909 ft 266 kts 49°
2026-05-06 18:29 53.06540 -6.53492 9907 ft 261 kts 49°
2026-05-06 18:29 53.07721 -6.51110 9920 ft 260 kts 49°
2026-05-06 18:29 53.08883 -6.48759 9920 ft 261 kts 49°
2026-05-06 18:29 53.10214 -6.46657 9906 ft 259 kts 27°
2026-05-06 18:30 53.11923 -6.45826 9810 ft 257 kts
2026-05-06 18:30 53.13615 -6.46344 9462 ft 255 kts 335°
2026-05-06 18:30 53.15239 -6.47472 9213 ft 248 kts 337°
2026-05-06 18:30 53.16855 -6.48499 8950 ft 243 kts 337°
2026-05-06 18:31 53.18489 -6.49527 8341 ft 253 kts 338°
2026-05-06 18:31 53.20145 -6.50560 7936 ft 253 kts 338°
2026-05-06 18:31 53.21802 -6.51673 7552 ft 250 kts 328°
2026-05-06 18:31 53.23231 -6.53350 7182 ft 248 kts 322°
2026-05-06 18:32 53.24641 -6.55059 6804 ft 247 kts 322°
2026-05-06 18:32 53.26051 -6.56773 6420 ft 247 kts 322°
2026-05-06 18:32 53.27439 -6.58461 6092 ft 250 kts 322°
2026-05-06 18:32 53.28890 -6.60226 5721 ft 255 kts 322°
2026-05-06 18:33 53.30364 -6.62019 5348 ft 260 kts 322°
2026-05-06 18:33 53.31819 -6.63921 5001 ft 262 kts 311°
2026-05-06 18:33 53.32662 -6.66516 4995 ft 247 kts 283°
2026-05-06 18:33 53.32986 -6.69299 5004 ft 236 kts 279°
2026-05-06 18:34 53.33281 -6.71983 4987 ft 231 kts 279°
2026-05-06 18:34 53.33386 -6.74671 4987 ft 231 kts 258°
2026-05-06 18:34 53.32798 -6.77197 5014 ft 230 kts 251°
2026-05-06 18:34 53.32716 -6.79873 5003 ft 231 kts 283°
2026-05-06 18:35 53.33522 -6.82187 5017 ft 234 kts 316°
2026-05-06 18:35 53.34992 -6.83455 5016 ft 239 kts 348°
2026-05-06 18:35 53.36658 -6.83230 4984 ft 238 kts 21°
2026-05-06 18:35 53.37981 -6.81571 5036 ft 242 kts 52°
2026-05-06 18:36 53.39021 -6.79312 4996 ft 240 kts 48°
2026-05-06 18:36 53.40200 -6.77247 4998 ft 240 kts 44°
2026-05-06 18:36 53.41415 -6.75258 4988 ft 241 kts 43°
2026-05-06 18:36 53.42638 -6.73305 4994 ft 240 kts 43°
2026-05-06 18:37 53.43871 -6.71350 5012 ft 242 kts 43°
2026-05-06 18:37 53.44690 -6.70051 4983 ft 240 kts 43°
2026-05-06 18:37 53.45916 -6.66918 4815 ft 244 kts 77°
2026-05-06 18:37 53.45857 -6.64084 4528 ft 242 kts 102°
2026-05-06 18:38 53.45526 -6.61313 4222 ft 237 kts 102°
2026-05-06 18:38 53.45336 -6.58561 3901 ft 234 kts 94°
2026-05-06 18:38 53.45219 -6.55852 3586 ft 231 kts 96°
2026-05-06 18:38 53.45078 -6.53173 3269 ft 228 kts 96°
2026-05-06 18:39 53.44938 -6.50509 2952 ft 226 kts 96°
2026-05-06 18:39 53.44800 -6.47901 2630 ft 213 kts 96°
2026-05-06 18:39 53.44674 -6.45528 2326 ft 194 kts 96°
2026-05-06 18:40 53.44454 -6.41432 1934 ft 153 kts 97°
2026-05-06 18:40 53.44363 -6.39751 1664 ft 139 kts 97°
2026-05-06 18:40 53.44274 -6.38146 1469 ft 134 kts 97°
2026-05-06 18:40 53.44190 -6.36609 1281 ft 134 kts 97°
2026-05-06 18:41 53.44108 -6.35061 1108 ft 134 kts 98°
2026-05-06 18:41 53.44021 -6.33490 905 ft 134 kts 97°
2026-05-06 18:41 53.43933 -6.31951 700 ft 132 kts 97°
2026-05-06 18:41 53.43854 -6.30429 568 ft 131 kts 97°
2026-05-06 18:42 53.43760 -6.28897 389 ft 130 kts 98°
2026-05-06 18:42 53.43681 -6.27384 268 ft 127 kts 98°
2026-05-06 18:42 53.43607 -6.26080 255 ft 99 kts 95°
2026-05-06 18:42 53.43572 -6.25487 255 ft 11 kts 95°
2026-05-06 18:43 53.43556 -6.25314 255 ft 17 kts 115°
2026-05-06 18:43 53.43500 -6.25144 255 ft 8 kts 120°
2026-05-06 18:43 53.43469 -6.25054 255 ft 8 kts 120°
2026-05-06 18:43 53.43442 -6.24973 255 ft 7 kts 122°
2026-05-06 18:44 53.43403 -6.24944 255 ft 5 kts 207°
2026-05-06 18:44 53.43386 -6.25009 255 ft 7 kts 257°
2026-05-06 18:44 53.43385 -6.25143 255 ft 13 kts 274°
2026-05-06 18:44 53.43393 -6.25308 255 ft 14 kts 275°
2026-05-06 18:45 53.43401 -6.25455 255 ft 8 kts 275°
2026-05-06 18:45 53.43406 -6.25540 255 ft 4 kts 275°
2026-05-06 18:45 53.43409 -6.25603 255 ft 9 kts 275°
2026-05-06 18:45 53.43387 -6.25658 255 ft 10 kts 191°
2026-05-06 18:46 53.43292 -6.25603 255 ft 10 kts 157°
2026-05-06 18:46 53.43226 -6.25557 255 ft 9 kts 158°
2026-05-06 18:46 53.43169 -6.25517 255 ft 8 kts 158°
2026-05-06 18:46 53.43120 -6.25484 255 ft 6 kts 155°
2026-05-06 18:47 53.43070 -6.25444 255 ft 11 kts 156°
2026-05-06 18:47 53.42986 -6.25384 255 ft 13 kts 157°
2026-05-06 18:47 53.42901 -6.25322 255 ft 12 kts 156°
2026-05-06 18:47 53.42825 -6.25267 255 ft 11 kts 157°
2026-05-06 18:48 53.42759 -6.25217 255 ft 9 kts 150°
2026-05-06 18:48 53.42715 -6.25149 255 ft 7 kts 130°
2026-05-06 18:48 53.42677 -6.25089 255 ft 9 kts 152°
2026-05-06 18:48 53.42609 -6.25038 255 ft 10 kts 157°
2026-05-06 18:49 53.42542 -6.24991 255 ft 9 kts 157°
2026-05-06 18:49 53.42487 -6.24952 255 ft 7 kts 158°
2026-05-06 18:49 53.42421 -6.24907 255 ft 13 kts 159°
2026-05-06 18:49 53.42321 -6.24840 254 ft 15 kts 154°
2026-05-06 18:50 53.42231 -6.24754 255 ft 13 kts 133°
2026-05-06 18:50 53.42211 -6.24629 254 ft 10 kts 93°
2026-05-06 18:50 53.42207 -6.24524 254 ft 11 kts 94°
2026-05-06 18:50 53.42200 -6.24377 254 ft 11 kts 91°
2026-05-06 18:51 53.42234 -6.24278 254 ft 8 kts 47°
2026-05-06 18:51 53.42274 -6.24211 255 ft 7 kts 45°
2026-05-06 18:51 53.42302 -6.24194 255 ft 2 kts 341°
2026-05-06 18:51 53.42329 -6.24221 255 ft 5 kts 328°
2026-05-06 18:52 53.42345 -6.24240 255 ft 1 kts 324°
2026-05-06 18:52 53.42347 -6.24243 255 ft 0 kts 324°